User: anonymous   Login
Location: Unspecified
(0.0000°N, 0.0000°E)
Time: 19:58:55
(UTC+00:00)
Language:

GONETS M 07 - Orbit

View from above orbital plane
View from above orbital plane
View from above satellite
View from above satellite

Ground track
Ground track

The orbit data is extracted from the following two-line orbital elements,

1 39251U 13048C   18171.66978097  .00000016  00000-0  43333-4 0  9993
2 39251  82.4877   4.0694 0016798  94.0169 266.2819 12.42882984216462
Epoch (UTC): 20 June 2018 16:04:29
Eccentricity: 0.0016798
inclination: 82.4877°
perigee height: 1481 km
apogee height: 1507 km
right ascension of ascending node: 4.0694°
argument of perigee: 94.0169°
revolutions per day: 12.42882984
mean anomaly at epoch: 266.2819°
orbit number at epoch: 21646

The dashed part of the orbit path shows where the satellite is in the earth's shadow,  

DLR